1483700400.57,5614,4.5,72368.0,-21.59,-60.77,-61.43,0,*5F
1483700401.84,5615,4.5,72366.8,-21.61,-60.85,-61.43,0,*58
1483700403.13,5616,4.5,72370.3,-21.61,-60.61,-61.11,0,*56
1483700404.42,5617,4.5,72370.3,-21.61,-60.53,-61.11,0,*56
1483700405.69,5618,4.5,72372.0,-21.63,-60.61,-61.11,0,*5A
1483700406.92,5619,4.5,72374.8,-21.65,-60.93,-61.69,0,*5F
1483700408.16,5620,4.5,72372.3,-21.63,-61.35,-62.11,0,*52
1483700409.4,5621,4.5,72374.5,-21.65,-60.85,-61.43,0,*5B
1483700410.64,5622,4.5,72378.0,-21.69,-61.43,-61.95,0,*54
1483700411.88,5623,4.5,72368.3,-21.69,-61.27,-61.85,0,*56
1483700413.13,5624,4.5,72376.8,-21.71,-61.19,-61.77,0,*58
1483700414.4,5625,4.5,72374.3,-21.71,-61.35,-62.03,0,*57
1483700415.69,5626,4.5,72374.0,-21.71,-60.77,-61.53,0,*55
1483700416.92,5627,4.5,72368.3,-21.73,-60.77,-61.35,0,*56
1483700418.19,5628,4.5,72370.3,-21.75,-61.69,-62.19,0,*5C
1483700419.48,5629,4.5,72368.8,-21.75,-61.03,-61.61,0,*5D
1483700420.76,5630,4.5,72374.3,-21.75,-60.61,-61.11,0,*57
1483700422.05,5631,4.5,72372.0,-21.75,-60.37,-61.03,0,*56
1483700423.29,5632,4.5,72368.5,-21.77,-60.85,-61.69,0,*52
1483700424.55,5633,4.5,72368.3,-21.79,-60.93,-61.43,0,*52
1483700425.84,5634,4.5,72374.3,-21.79,-60.61,-61.19,0,*57
1483700427.1,5635,4.5,72368.5,-21.77,-60.61,-61.27,0,*55
1483700428.4,5636,4.5,72380.8,-21.79,-60.61,-61.19,0,*55
1483700429.66,5637,4.5,72372.3,-21.79,-60.69,-61.35,0,*52
1483700430.91,5638,4.5,72374.5,-21.81,-60.69,-61.19,0,*54
1483700432.18,5639,4.5,72372.8,-21.83,-60.61,-61.35,0,*51
1483700433.47,5640,4.5,72382.3,-21.83,-60.61,-61.11,0,*59
1483700434.77,5641,4.5,72386.3,-21.83,-60.61,-61.19,0,*50
1483700436.06,5642,4.5,72380.3,-21.83,-60.61,-61.19,0,*53
1483700437.33,5643,4.5,72380.8,-21.83,-60.85,-61.35,0,*56
1483700438.59,5644,4.5,72378.5,-21.85,-61.03,-61.61,0,*59
1483700439.85,5645,4.5,72372.8,-21.87,-60.77,-61.43,0,*58
1483700441.11,5646,4.5,72374.0,-21.85,-60.69,-61.19,0,*59
1483700442.37,5647,4.5,72374.0,-21.85,-60.45,-60.77,0,*5F
1483700443.63,5648,4.5,72376.0,-21.85,-60.45,-61.19,0,*59
1483700444.91,5649,4.5,72368.0,-21.87,-60.69,-61.27,0,*59
1483700446.2,5650,4.5,72366.5,-21.91,-61.11,-61.61,0,*5A
1483700447.46,5651,4.5,72364.8,-21.91,-60.77,-61.35,0,*5B
1483700448.73,5652,4.5,72360.3,-21.93,-60.77,-61.53,0,*5A
1483700450.01,5653,4.5,72370.3,-21.91,-60.77,-61.27,0,*5A
1483700451.29,5654,4.5,72374.3,-21.93,-60.53,-60.85,0,*50
1483700452.56,5655,4.5,72374.5,-21.93,-60.61,-61.03,0,*5F
1483700453.82,5656,4.5,72376.0,-21.93,-60.37,-61.03,0,*5F
1483700455.09,5657,4.5,72378.0,-21.97,-60.85,-61.43,0,*57
1483700456.35,5658,4.5,72376.8,-21.97,-60.69,-61.35,0,*5B
1483700457.61,5659,4.5,72362.5,-21.97,-60.85,-61.43,0,*59
1483700458.87,5660,4.5,72370.3,-21.97,-61.19,-61.77,0,*50
1483700460.08,5661,4.5,72374.3,-21.99,-61.35,-61.77,0,*51
1483700461.33,5662,4.5,72366.0,-21.99,-61.43,-62.19,0,*58
1483700462.59,5663,4.5,72360.5,-22.01,-60.93,-61.69,0,*53
1483700463.89,5664,4.5,72362.5,-22.01,-60.93,-61.53,0,*5D
1483700465.13,5665,4.5,72360.3,-22.03,-61.03,-61.69,0,*5F
1483700466.4,5666,4.5,72358.0,-22.05,-60.85,-61.35,0,*5C
1483700467.62,5667,4.5,72364.0,-22.03,-61.35,-61.85,0,*5A
1483700468.89,5668,4.5,72384.3,-22.05,-61.03,-61.35,0,*5D
1483700470.16,5669,4.5,72380.0,-22.11,-60.93,-61.61,0,*50
1483700471.4,5670,4.5,72364.3,-22.11,-61.43,-62.03,0,*53
1483700472.65,5671,4.5,72360.8,-22.11,-61.11,-61.85,0,*58
1483700473.92,5672,4.5,72364.0,-22.11,-60.85,-61.19,0,*52
1483700475.17,5673,4.5,72364.8,-22.15,-60.77,-61.27,0,*57
1483700476.45,5674,4.5,72364.5,-22.15,-60.93,-61.53,0,*59
1483700477.69,5675,4.5,72368.3,-22.15,-60.93,-61.69,0,*51
1483700478.95,5676,4.5,72368.5,-22.17,-60.93,-61.43,0,*58
1483700480.21,5677,4.5,72370.5,-22.15,-60.69,-61.03,0,*5A
1483700481.48,5678,4.5,72360.8,-22.17,-60.93,-61.69,0,*5E
1483700482.77,5679,4.5,72372.0,-22.17,-60.69,-61.19,0,*5D
1483700484.06,5680,4.5,72374.0,-22.17,-61.03,-61.53,0,*58
1483700485.33,5681,4.5,72362.3,-22.21,-61.03,-61.35,0,*5C
1483700486.58,5682,4.5,72362.0,-22.19,-60.69,-61.27,0,*5A
1483700487.87,5683,4.5,72368.0,-22.21,-61.11,-61.61,0,*5C
1483700489.16,5684,4.5,72366.3,-22.21,-60.85,-61.27,0,*55
1483700490.42,5685,4.5,72364.8,-22.23,-60.61,-61.27,0,*5C
1483700491.69,5686,4.5,72352.3,-22.23,-60.61,-61.03,0,*59
1483700492.97,5687,4.5,72358.0,-22.23,-60.27,-60.77,0,*58
1483700494.2,5688,4.5,72358.0,-22.23,-60.03,-60.45,0,*50
1483700495.48,5689,4.44,72346.0,-22.23,-60.27,-60.77,0,*56
1483700496.78,5690,4.5,72354.8,-22.25,-60.37,-60.85,0,*54
1483700498.05,5691,4.5,72368.3,-22.25,-60.61,-61.35,0,*5C
1483700499.31,5692,4.5,72358.0,-22.29,-60.37,-61.11,0,*56
1483700500.61,5693,4.5,72370.3,-22.25,-60.61,-61.11,0,*58
1483700501.89,5694,4.5,72374.8,-22.25,-60.69,-61.19,0,*5F
1483700503.16,5695,4.5,72388.3,-22.29,-60.61,-60.93,0,*59
1483700504.43,5696,4.5,72390.0,-22.29,-60.27,-60.61,0,*55
1483700505.69,5697,4.5,72388.5,-22.29,-60.37,-60.69,0,*5D
1483700506.96,5698,4.5,72376.8,-22.29,-60.61,-61.11,0,*5F
1483700508.22,5699,4.5,72370.0,-22.29,-60.37,-60.93,0,*56
1483700509.49,5700,4.5,72370.8,-22.29,-60.37,-60.69,0,*52
1483700510.78,5701,4.5,72368.8,-22.31,-60.61,-61.03,0,*54
1483700512.04,5702,4.5,72370.8,-22.33,-60.19,-60.69,0,*57
1483700513.34,5703,4.5,72370.8,-22.31,-60.19,-60.61,0,*5C
1483700514.63,5704,4.5,72364.5,-22.31,-60.37,-60.69,0,*5F
1483700515.92,5705,4.5,72372.5,-22.31,-60.37,-60.77,0,*51
1483700517.15,5706,4.5,72378.3,-22.33,-61.19,-61.77,0,*5C
1483700518.41,5707,4.5,72372.5,-22.33,-61.27,-61.95,0,*5C
1483700519.68,5708,4.5,72374.3,-22.39,-60.85,-61.35,0,*5A
1483700520.91,5709,4.5,72372.8,-22.39,-61.35,-61.77,0,*57
1483700522.17,5710,4.5,72370.8,-22.39,-61.27,-61.77,0,*5C
1483700523.44,5711,4.5,72366.8,-22.39,-61.35,-62.03,0,*5E
1483700524.7,5712,4.5,72372.0,-22.43,-61.11,-61.69,0,*59
1483700525.96,5713,4.5,72358.8,-22.43,-60.93,-61.35,0,*5A
1483700527.19,5714,4.5,72356.3,-22.45,-60.93,-61.43,0,*5A
1483700528.46,5715,4.5,72378.8,-22.45,-60.61,-61.19,0,*59
1483700529.69,5716,4.5,72382.8,-22.45,-60.93,-61.43,0,*58
1483700530.98,5717,4.5,72376.3,-22.47,-61.03,-61.53,0,*52
1483700532.27,5718,4.5,72370.3,-22.47,-61.03,-61.53,0,*5D
1483700533.56,5719,4.5,72366.5,-22.47,-60.85,-61.27,0,*50
1483700534.85,5720,4.5,72362.5,-22.47,-60.61,-61.03,0,*56
1483700536.14,5721,4.5,72378.5,-22.47,-60.11,-60.85,0,*5F
1483700537.41,5722,4.5,72382.5,-22.49,-60.37,-60.93,0,*51
1483700538.67,5723,4.5,72378.0,-22.49,-60.37,-60.93,0,*50
1483700539.93,5724,4.5,72374.5,-22.49,-60.45,-60.93,0,*52
1483700541.21,5725,4.5,72370.5,-22.51,-60.45,-60.93,0,*5A
1483700542.51,5726,4.5,72364.5,-22.51,-60.27,-60.93,0,*5D
1483700543.77,5727,4.5,72372.3,-22.51,-60.03,-60.69,0,*5F
1483700545.06,5728,4.5,72372.3,-22.51,-60.19,-60.69,0,*5B
1483700546.35,5729,4.5,72378.0,-22.51,-60.19,-60.77,0,*55
1483700547.64,5730,4.5,72368.8,-22.51,-60.45,-60.77,0,*54
1483700548.9,5731,4.5,72370.5,-22.53,-60.53,-61.03,0,*52
1483700550.2,5732,4.5,72376.8,-22.55,-60.61,-61.11,0,*55
1483700551.47,5733,4.5,72372.5,-22.53,-60.27,-60.77,0,*51
1483700552.73,5734,4.5,72364.0,-22.53,-60.45,-60.93,0,*58
1483700554.03,5735,4.5,72368.3,-22.55,-60.53,-60.85,0,*5F
1483700555.32,5736,4.5,72364.8,-22.55,-60.37,-61.03,0,*51
1483700556.62,5737,4.5,72364.3,-22.55,-60.37,-60.85,0,*5F
1483700557.92,5738,4.5,72368.5,-22.55,-60.37,-60.85,0,*50
1483700559.21,5739,4.5,72378.3,-22.59,-60.53,-61.03,0,*50
1483700560.5,5740,4.5,72372.5,-22.59,-60.37,-60.85,0,*53
1483700561.8,5741,4.5,72376.5,-22.59,-60.11,-60.85,0,*56
1483700563.1,5742,4.5,72374.0,-22.59,-60.11,-60.85,0,*55
1483700564.39,5743,4.5,72370.5,-22.59,-60.11,-60.61,0,*5E
1483700565.68,5744,4.5,72374.5,-22.59,-60.37,-60.77,0,*5A
1483700566.97,5745,4.5,72372.8,-22.59,-60.11,-60.85,0,*52
1483700568.27,5746,4.5,72382.8,-22.59,-60.27,-60.77,0,*59
1483700569.57,5747,4.5,72384.0,-22.61,-60.19,-60.61,0,*59
1483700570.86,5748,4.5,72376.0,-22.61,-60.45,-60.93,0,*52
1483700572.15,5749,4.5,72368.8,-22.61,-60.19,-60.69,0,*5F
1483700573.44,5750,4.5,72380.8,-22.61,-60.11,-60.69,0,*5F
1483700574.68,5751,4.5,72374.0,-22.63,-59.95,-60.61,0,*52
1483700575.96,5752,4.5,72372.3,-22.63,-60.19,-60.61,0,*5F
1483700577.23,5753,4.5,72378.0,-22.63,-60.37,-60.85,0,*58
1483700578.5,5754,4.5,72382.8,-22.63,-60.11,-60.61,0,*51
1483700579.78,5755,4.5,72378.8,-22.63,-60.19,-60.61,0,*58
1483700581.05,5756,4.5,72368.8,-22.63,-60.19,-60.61,0,*5B
1483700582.34,5757,4.5,72376.8,-22.65,-60.27,-60.77,0,*56
1483700583.64,5758,4.5,72376.3,-22.65,-60.19,-60.77,0,*54
1483700584.9,5759,4.5,72374.5,-22.65,-60.03,-60.69,0,*51
1483700586.18,5760,4.5,72376.8,-22.65,-60.45,-60.77,0,*56
1483700587.48,5761,4.5,72370.0,-22.69,-60.27,-60.93,0,*55
1483700588.74,5762,4.5,72370.8,-22.69,-60.03,-60.45,0,*5B
1483700590.03,5763,4.5,72370.0,-22.65,-60.19,-60.77,0,*5C
1483700591.32,5764,4.5,72364.3,-22.69,-60.19,-60.69,0,*58
1483700592.58,5765,4.5,72370.5,-22.69,-60.03,-60.69,0,*52
1483700593.86,5766,4.5,72368.0,-22.71,-60.27,-60.85,0,*5C
1483700595.17,5767,4.5,72374.8,-22.73,-60.27,-60.85,0,*5F
1483700596.44,5768,4.5,72376.3,-22.71,-60.27,-60.77,0,*5F
1483700597.74,5769,4.5,72372.8,-22.73,-60.27,-61.03,0,*5E
1483700599.03,5770,4.5,72366.8,-22.73,-60.37,-61.03,0,*57
1483700600.33,5771,4.5,72380.5,-22.73,-60.61,-61.11,0,*56
1483700601.6,5772,4.5,72390.0,-22.75,-60.27,-60.61,0,*57
1483700602.88,5773,4.5,72364.5,-22.75,-60.27,-60.53,0,*57
1483700604.15,5774,4.5,72362.8,-22.75,-60.11,-60.53,0,*55
1483700605.42,5775,4.5,72370.0,-22.77,-59.95,-60.45,0,*57
1483700606.71,5776,4.5,72374.8,-22.77,-60.19,-60.69,0,*54
1483700608.01,5777,4.5,72376.5,-22.77,-60.19,-60.85,0,*57
1483700609.29,5778,4.5,72378.0,-22.75,-60.27,-61.03,0,*58
1483700610.59,5779,4.5,72386.3,-22.77,-60.19,-60.61,0,*53
1483700611.88,5780,4.5,72378.8,-22.77,-59.71,-60.19,0,*5E
1483700613.14,5781,4.5,72384.3,-22.81,-60.03,-60.69,0,*5E
1483700614.42,5782,4.5,72394.0,-22.81,-59.95,-60.53,0,*51
1483700615.69,5783,4.5,72384.3,-22.81,-60.03,-60.53,0,*55
1483700616.98,5784,4.5,72376.3,-22.81,-60.53,-60.93,0,*5B
1483700618.28,5785,4.5,72376.5,-22.81,-60.27,-60.69,0,*5C
1483700619.58,5786,4.5,72378.5,-22.81,-60.27,-60.53,0,*56
1483700620.85,5787,4.5,72384.8,-22.81,-59.95,-60.45,0,*53
1483700622.11,5788,4.5,72382.5,-22.81,-59.95,-60.27,0,*58
1483700623.42,5789,4.5,72376.0,-22.81,-60.19,-60.53,0,*54
1483700624.72,5790,4.5,72380.0,-22.81,-60.19,-60.53,0,*5C
1483700626.0,5791,4.5,72382.3,-22.83,-60.19,-60.53,0,*5F
1483700627.24,5792,4.5,72380.8,-22.83,-60.03,-60.45,0,*50
1483700628.48,5793,4.5,72384.3,-22.83,-59.95,-60.27,0,*50
1483700629.78,5794,4.5,72386.8,-22.85,-60.37,-60.85,0,*5B
1483700631.05,5795,4.5,72388.0,-22.83,-60.19,-60.69,0,*52
1483700632.32,5796,4.5,72390.8,-22.85,-60.03,-60.27,0,*56
1483700633.6,5797,4.5,72386.5,-22.85,-59.87,-60.37,0,*50
1483700634.87,5798,4.5,72386.0,-22.85,-60.03,-60.37,0,*59
1483700636.14,5799,4.5,72390.3,-22.85,-60.03,-60.27,0,*59
1483700637.44,5800,4.5,72388.0,-22.85,-60.37,-60.85,0,*59
1483700638.73,5801,4.5,72388.3,-22.85,-60.11,-60.61,0,*56
1483700639.99,5802,4.5,72392.3,-22.87,-59.87,-60.37,0,*51
1483700641.24,5803,4.5,72390.8,-22.87,-59.79,-60.27,0,*50
1483700642.48,5804,4.5,72390.8,-22.87,-59.79,-60.11,0,*52
1483700643.73,5805,4.5,72392.8,-22.91,-59.95,-60.37,0,*52
1483700644.96,5806,4.5,72390.0,-22.87,-59.47,-60.03,0,*5E
1483700646.2,5807,4.5,72390.3,-22.87,-59.55,-60.03,0,*5C
1483700647.47,5808,4.5,72394.0,-22.91,-59.63,-60.11,0,*52
1483700648.71,5809,4.5,72390.5,-22.87,-59.63,-60.03,0,*57
1483700649.95,5810,4.5,72390.3,-22.91,-59.87,-60.19,0,*59
1483700651.19,5811,4.5,72388.5,-22.91,-59.87,-60.11,0,*50
1483700652.42,5812,4.5,72388.8,-22.91,-59.63,-59.95,0,*5F
1483700653.64,5813,4.5,72384.0,-22.91,-59.37,-59.95,0,*5F
1483700654.87,5814,4.5,72380.8,-22.91,-59.63,-59.95,0,*59
1483700656.11,5815,4.5,72380.0,-22.91,-59.55,-59.95,0,*5D
1483700657.32,5816,4.5,72364.3,-22.91,-59.37,-59.87,0,*59
1483700658.56,5817,4.5,72358.8,-22.91,-59.87,-60.37,0,*52
1483700659.8,5818,4.5,72364.3,-22.91,-59.95,-60.45,0,*5B
1483700661.04,5819,4.5,72358.8,-22.93,-59.95,-60.37,0,*5D
1483700662.31,5820,4.5,72368.3,-22.93,-60.11,-60.45,0,*54
1483700663.57,5821,4.5,72380.0,-22.93,-60.11,-60.45,0,*55
1483700664.84,5822,4.5,72372.5,-22.95,-59.79,-60.37,0,*51
1483700666.11,5823,4.5,72382.5,-22.95,-59.87,-60.37,0,*51
1483700667.35,5824,4.5,72388.5,-22.93,-59.95,-60.45,0,*56
1483700668.64,5825,4.5,72360.5,-22.95,-60.11,-60.45,0,*57
1483700669.93,5826,4.5,72374.0,-22.95,-60.19,-60.61,0,*5A
1483700671.23,5827,4.5,72372.8,-22.95,-60.37,-60.61,0,*57
1483700672.48,5828,4.5,72376.8,-22.97,-60.45,-60.77,0,*58
1483700673.75,5829,4.5,72368.8,-22.97,-60.19,-60.69,0,*5F
1483700675.01,5830,4.5,72370.0,-22.97,-60.27,-60.69,0,*5A
1483700676.29,5831,4.5,72364.3,-22.99,-60.45,-60.69,0,*51
1483700677.56,5832,4.5,72358.8,-22.99,-60.03,-60.69,0,*50
1483700678.82,5833,4.5,72356.3,-22.99,-60.03,-60.53,0,*58
1483700680.09,5834,4.5,72352.5,-23.03,-60.03,-60.53,0,*5D
1483700681.39,5835,4.5,72360.5,-23.03,-60.11,-60.61,0,*5E
1483700682.69,5836,4.5,72362.8,-23.03,-60.27,-60.61,0,*58
1483700683.99,5837,4.5,72380.8,-23.03,-60.27,-60.85,0,*53
1483700685.28,5838,4.5,72374.5,-23.03,-60.37,-60.77,0,*50
1483700686.55,5839,4.5,72366.3,-23.03,-59.95,-60.37,0,*57
1483700687.85,5840,4.5,72370.3,-23.03,-60.53,-60.85,0,*50
1483700689.14,5841,4.5,72366.8,-23.03,-60.37,-60.77,0,*5E
1483700690.43,5842,4.5,72366.3,-23.03,-60.11,-60.61,0,*5E
1483700691.73,5843,4.5,72376.3,-23.03,-60.27,-60.61,0,*5A
1483700693.0,5844,4.5,72366.5,-23.03,-60.03,-60.37,0,*58
1483700694.27,5845,4.5,72350.5,-23.03,-59.95,-60.37,0,*5C
1483700695.53,5846,4.5,72350.3,-23.05,-60.37,-60.69,0,*50
1483700696.77,5847,4.5,72344.8,-23.05,-60.03,-60.45,0,*58
1483700698.0,5848,4.5,72348.0,-23.05,-60.03,-60.45,0,*57
1483700699.27,5849,4.5,72354.0,-23.07,-59.79,-60.37,0,*56
1483700700.51,5850,4.5,72356.8,-23.05,-59.87,-60.37,0,*5D
1483700701.77,5851,4.5,72352.5,-23.07,-60.03,-60.37,0,*58
1483700703.01,5852,4.5,72354.0,-23.05,-60.03,-60.45,0,*5C
1483700704.25,5853,4.5,72342.0,-23.05,-59.87,-60.37,0,*5E
1483700705.51,5854,4.5,72374.5,-23.07,-60.03,-60.37,0,*5D
1483700706.78,5855,4.5,72382.0,-23.07,-59.79,-60.37,0,*5B
1483700708.05,5856,4.5,72374.8,-23.09,-60.11,-60.61,0,*51
1483700709.32,5857,4.5,72370.8,-23.09,-60.11,-60.69,0,*58
1483700710.58,5858,4.5,72370.5,-23.13,-60.45,-60.77,0,*52
1483700711.85,5859,4.5,72362.8,-23.13,-60.27,-60.53,0,*51
1483700713.12,5860,4.5,72364.8,-23.09,-60.19,-60.69,0,*54
1483700714.39,5861,4.5,72358.5,-23.13,-60.19,-60.77,0,*51
1483700715.65,5862,4.5,72354.8,-23.13,-60.45,-60.77,0,*5B
1483700716.92,5863,4.5,72360.5,-23.13,-60.27,-60.69,0,*51
1483700718.19,5864,4.5,72366.0,-23.13,-60.27,-60.69,0,*56
1483700719.43,5865,4.5,72354.0,-23.09,-60.03,-60.45,0,*54
1483700720.69,5866,4.5,72356.0,-23.13,-60.53,-60.93,0,*52
1483700721.95,5867,4.5,72368.0,-23.13,-60.11,-60.45,0,*5E
1483700723.2,5868,4.5,72356.5,-23.17,-59.95,-60.53,0,*54
1483700724.48,5869,4.5,72358.0,-23.17,-60.27,-60.77,0,*50
1483700725.75,5870,4.5,72358.8,-23.17,-60.37,-60.77,0,*59
1483700727.03,5871,4.5,72358.5,-23.15,-60.69,-61.27,0,*55
1483700728.3,5872,4.5,72358.5,-23.17,-60.53,-61.03,0,*5B
1483700729.57,5873,4.5,72356.0,-23.17,-60.37,-60.85,0,*57
1483700730.85,5874,4.5,72360.5,-23.17,-60.37,-60.77,0,*5D
1483700732.13,5875,4.5,72368.8,-23.17,-60.27,-60.61,0,*5A
1483700733.43,5876,4.5,72368.8,-23.19,-60.37,-60.61,0,*56
1483700734.69,5877,4.5,72368.8,-23.21,-60.37,-60.77,0,*5B
1483700735.97,5878,4.5,72366.3,-23.21,-60.27,-60.61,0,*52
1483700737.28,5879,4.5,72364.3,-23.19,-60.19,-60.53,0,*54
1483700738.52,5880,4.5,72372.5,-23.21,-59.95,-60.53,0,*57
1483700739.76,5881,4.5,72374.5,-23.21,-59.79,-60.37,0,*56
1483700741.04,5882,4.5,72370.5,-23.19,-60.03,-60.37,0,*59
1483700742.28,5883,4.5,72374.0,-23.21,-59.79,-60.37,0,*54
1483700743.55,5884,4.5,72374.8,-23.21,-59.71,-60.27,0,*5A
1483700744.81,5885,4.5,72380.3,-23.21,-59.71,-60.19,0,*56
1483700746.05,5886,4.5,72382.0,-23.21,-59.71,-60.03,0,*5E
1483700747.28,5887,4.5,72380.8,-23.21,-59.71,-60.03,0,*5F
1483700748.51,5888,4.5,72382.5,-23.21,-59.71,-60.03,0,*50
1483700749.71,5889,4.5,72382.5,-23.21,-59.79,-60.03,0,*59
1483700750.95,5890,4.5,72376.3,-23.21,-59.55,-60.03,0,*5F
1483700752.21,5891,4.5,72376.5,-23.27,-59.71,-60.11,0,*5D
1483700753.48,5892,4.5,72376.5,-23.27,-60.11,-60.53,0,*54
1483700754.75,5893,4.5,72378.8,-23.27,-60.11,-60.53,0,*55
1483700756.02,5894,4.5,72374.0,-23.29,-59.87,-60.53,0,*59
1483700757.25,5895,4.5,72376.0,-23.27,-59.95,-60.45,0,*52
1483700758.54,5896,4.5,72374.0,-23.29,-60.11,-60.53,0,*5E
1483700759.84,5897,4.5,72370.5,-23.29,-60.11,-60.53,0,*5F
1483700761.11,5898,4.5,72376.3,-23.27,-60.11,-60.53,0,*5E
1483700762.35,5899,4.5,72382.3,-23.27,-59.87,-60.37,0,*58
1483700763.64,5900,4.5,72384.0,-23.29,-59.63,-60.11,0,*59
1483700764.9,5901,4.5,72388.0,-23.29,-59.87,-60.37,0,*56
1483700766.16,5902,4.5,72366.3,-23.27,-60.37,-60.69,0,*51
1483700767.42,5903,4.5,72368.3,-23.29,-59.95,-60.69,0,*5C
1483700768.69,5904,4.5,72376.5,-23.29,-59.95,-60.37,0,*50
1483700769.95,5905,4.5,72388.5,-23.29,-59.87,-60.37,0,*52
1483700771.21,5906,4.5,72374.8,-23.29,-59.87,-60.37,0,*51
1483700772.45,5907,4.5,72368.0,-23.27,-59.95,-60.37,0,*5D
1483700773.71,5908,4.5,72366.3,-23.29,-59.87,-60.19,0,*53
1483700775.0,5909,4.5,72376.3,-23.29,-59.63,-60.11,0,*50
1483700776.28,5910,4.5,72376.3,-23.29,-59.71,-60.19,0,*53
1483700777.56,5911,4.5,72372.0,-23.29,-59.71,-60.19,0,*52
1483700778.83,5912,4.5,72376.0,-23.29,-59.87,-60.37,0,*54
1483700780.07,5913,4.5,72368.3,-23.31,-59.95,-60.53,0,*5D
1483700781.33,5914,4.5,72370.8,-23.29,-59.95,-60.45,0,*54
1483700782.59,5915,4.5,72366.5,-23.29,-59.87,-60.11,0,*57
1483700783.82,5916,4.5,72368.5,-23.31,-59.79,-60.45,0,*5D
1483700785.06,5917,4.5,72364.8,-23.31,-59.79,-60.27,0,*58
1483700786.3,5918,4.5,72352.0,-23.31,-59.63,-59.95,0,*5F
1483700787.53,5919,4.5,72360.8,-23.31,-59.63,-60.03,0,*5B
1483700788.79,5920,4.5,72340.0,-23.29,-59.63,-59.95,0,*5D
1483700790.03,5921,4.5,72358.0,-23.31,-59.79,-60.27,0,*5D
1483700791.31,5922,4.5,72374.8,-23.29,-59.71,-60.11,0,*5A
1483700792.6,5923,4.5,72372.8,-23.29,-59.71,-60.11,0,*5B
1483700793.88,5924,4.5,72376.8,-23.29,-59.71,-60.19,0,*54
1483700795.12,5925,4.5,72378.8,-23.31,-59.79,-60.19,0,*54
1483700796.38,5926,4.5,72382.0,-23.29,-59.87,-60.19,0,*5F
1483700797.63,5927,4.5,72378.8,-23.29,-59.87,-60.11,0,*56
1483700798.87,5928,4.5,72380.5,-23.31,-59.79,-60.19,0,*59
1483700800.14,5929,4.5,72382.8,-23.31,-59.71,-60.27,0,*5D
1483700801.37,5930,4.5,72388.8,-23.35,-59.55,-59.95,0,*54
1483700802.6,5931,4.5,72378.0,-23.31,-59.55,-59.95,0,*51
1483700803.84,5932,4.5,72376.8,-23.31,-59.79,-60.19,0,*52
1483700805.07,5933,4.5,72382.3,-23.31,-59.71,-60.03,0,*50
1483700806.31,5934,4.5,72380.8,-23.31,-59.79,-60.19,0,*54
1483700807.55,5935,4.5,72384.3,-23.31,-59.79,-60.19,0,*55
1483700808.8,5936,4.5,72392.8,-23.31,-59.47,-59.71,0,*5F
1483700810.06,5937,4.5,72384.5,-23.33,-59.21,-59.71,0,*5C
1483700811.32,5938,4.5,72390.5,-23.33,-59.29,-59.71,0,*5B
1483700812.55,5939,4.5,72392.0,-23.31,-59.55,-59.95,0,*59
1483700813.78,5940,4.5,72388.3,-23.31,-59.55,-59.79,0,*55
1483700815.04,5941,4.5,72392.5,-23.29,-59.63,-59.87,0,*59
1483700816.27,5942,4.5,72392.5,-23.31,-59.71,-60.03,0,*56
1483700817.52,5943,4.5,72392.0,-23.33,-59.71,-60.03,0,*55
1483700818.76,5944,4.5,72380.8,-23.33,-59.29,-59.79,0,*58
1483700820.02,5945,4.5,72384.0,-23.33,-59.47,-59.95,0,*53
1483700821.27,5946,4.5,72394.3,-23.33,-59.55,-59.79,0,*51
1483700822.53,5947,4.5,72390.3,-23.33,-59.47,-59.79,0,*53
1483700823.79,5948,4.5,72390.3,-23.33,-59.55,-59.95,0,*5D
1483700825.05,5949,4.5,72392.5,-23.33,-59.21,-59.55,0,*53
1483700826.31,5950,4.5,72392.0,-23.33,-59.05,-59.29,0,*56
1483700827.6,5951,4.5,72388.5,-23.33,-59.05,-59.47,0,*5F
1483700828.86,5952,4.5,72378.3,-23.33,-58.97,-59.29,0,*5E
1483700830.13,5953,4.5,72372.5,-23.33,-59.05,-59.29,0,*55
1483700831.38,5954,4.5,72378.0,-23.31,-59.05,-59.47,0,*58
1483700832.64,5955,4.5,72382.5,-23.31,-59.05,-59.47,0,*59
1483700833.87,5956,4.5,72410.0,-23.31,-59.29,-59.55,0,*57
1483700835.11,5957,4.5,72390.5,-23.31,-59.29,-59.71,0,*50
1483700836.36,5958,4.5,72378.3,-23.31,-59.47,-59.71,0,*57
1483700837.6,5959,4.5,72380.8,-23.31,-59.21,-59.71,0,*56
1483700838.82,5960,4.5,72372.0,-23.31,-59.47,-59.79,0,*54
1483700840.05,5961,4.5,72390.0,-23.31,-59.47,-59.79,0,*55
1483700841.28,5962,4.5,72382.5,-23.31,-59.47,-59.79,0,*56
1483700842.51,5963,4.5,72390.0,-23.31,-59.21,-59.71,0,*5F
1483700843.74,5964,4.5,72386.8,-23.31,-59.05,-59.21,0,*5B
1483700845.0,5965,4.5,72376.0,-23.31,-59.05,-59.47,0,*5A
1483700846.24,5966,4.5,72376.3,-23.31,-58.97,-59.29,0,*5B
1483700847.48,5967,4.5,72376.0,-23.31,-58.97,-59.29,0,*5A
1483700848.71,5968,4.5,72368.8,-23.31,-59.21,-59.55,0,*52
1483700849.97,5969,4.5,72372.0,-23.29,-59.13,-59.63,0,*5E
1483700851.22,5970,4.5,72384.0,-23.29,-59.21,-59.47,0,*51
1483700852.45,5971,4.5,72388.3,-23.31,-59.21,-59.71,0,*5C
1483700853.68,5972,4.5,72388.0,-23.31,-59.47,-60.03,0,*50
1483700854.93,5973,4.5,72386.0,-23.29,-59.37,-59.71,0,*50
1483700856.16,5974,4.5,72388.5,-23.31,-59.47,-59.79,0,*51
1483700857.37,5975,4.5,72384.3,-23.31,-59.21,-59.79,0,*50
1483700858.6,5976,4.5,72396.0,-23.31,-59.29,-59.71,0,*53
1483700859.83,5977,4.5,72388.8,-23.31,-59.55,-59.95,0,*53
1483700861.06,5978,4.5,72394.3,-23.31,-59.21,-59.55,0,*53
1483700862.3,5979,4.5,72394.3,-23.31,-59.05,-59.29,0,*5F
1483700863.56,5980,4.5,72402.5,-23.31,-59.05,-59.47,0,*51
1483700864.79,5981,4.5,72396.8,-23.31,-59.05,-59.29,0,*58
1483700866.05,5982,4.5,72396.8,-23.31,-59.05,-59.47,0,*53
1483700867.28,5983,4.5,72402.0,-23.31,-59.13,-59.47,0,*55
1483700868.52,5984,4.5,72402.3,-23.31,-59.05,-59.29,0,*5D
1483700869.76,5985,4.5,72402.0,-23.31,-58.97,-59.29,0,*56
1483700871.01,5986,4.5,72400.0,-23.31,-59.05,-59.47,0,*57
1483700872.27,5987,4.5,72400.5,-23.29,-58.89,-59.21,0,*5A
1483700873.52,5988,4.5,72390.3,-23.31,-59.05,-59.47,0,*59
1483700874.73,5989,4.5,72392.8,-23.31,-59.29,-59.79,0,*5B
1483700875.94,5990,4.5,72400.0,-23.31,-59.21,-59.79,0,*5B
1483700877.17,5991,4.5,72394.3,-23.31,-59.21,-59.71,0,*52
1483700878.4,5992,4.5,72388.8,-23.31,-59.21,-59.55,0,*57
1483700879.66,5993,4.5,72394.0,-23.31,-58.97,-59.47,0,*59
1483700880.89,5994,4.5,72396.5,-23.31,-59.21,-59.63,0,*54
1483700882.12,5995,4.5,72406.0,-23.31,-59.21,-59.71,0,*56
1483700883.35,5996,4.5,72400.8,-23.31,-59.47,-59.79,0,*5D
1483700884.59,5997,4.5,72402.3,-23.31,-59.29,-59.47,0,*59
1483700885.85,5998,4.5,72394.0,-23.29,-59.37,-59.63,0,*56
1483700887.08,5999,4.5,72386.8,-23.31,-59.21,-59.71,0,*5A
1483700888.31,6000,4.5,72388.5,-23.31,-59.21,-59.55,0,*56
1483700889.54,6001,4.5,72384.0,-23.31,-59.29,-59.55,0,*5F
1483700890.78,6002,4.5,72380.3,-23.31,-59.29,-59.71,0,*5A
1483700892.04,6003,4.5,72378.5,-23.31,-59.55,-59.71,0,*50
1483700893.27,6004,4.5,72382.0,-23.31,-59.21,-59.55,0,*52
1483700894.52,6005,4.5,72382.3,-23.33,-59.47,-59.79,0,*5F
1483700895.78,6006,4.5,72388.5,-23.33,-59.21,-59.71,0,*54
1483700897.04,6007,4.5,72382.0,-23.33,-59.21,-59.55,0,*53
1483700898.3,6008,4.5,72386.3,-23.33,-59.29,-59.71,0,*52
1483700899.53,6009,4.5,72388.8,-23.31,-59.55,-59.95,0,*50
1483700900.76,6010,4.5,72382.8,-23.31,-59.71,-60.03,0,*5B
1483700901.99,6011,4.5,72386.5,-23.31,-59.55,-59.95,0,*59
1483700903.22,6012,4.5,72390.8,-23.31,-59.47,-59.79,0,*5B
1483700904.45,6013,4.5,72384.0,-23.31,-59.47,-59.95,0,*58
1483700905.71,6014,4.5,72380.0,-23.33,-59.47,-59.95,0,*5D
1483700906.94,6015,4.5,72384.8,-23.35,-59.71,-60.03,0,*5A
1483700908.18,6016,4.5,72382.5,-23.35,-59.55,-59.95,0,*5A
1483700909.44,6017,4.5,72386.0,-23.33,-59.47,-59.79,0,*5C
1483700910.67,6018,4.5,72382.3,-23.35,-59.29,-59.71,0,*55
1483700911.91,6019,4.5,72392.3,-23.35,-59.21,-59.71,0,*5C
1483700913.15,6020,4.5,72430.5,-23.35,-59.29,-59.71,0,*5E
1483700914.41,6021,4.5,72412.8,-23.33,-59.79,-60.19,0,*58
1483700915.69,6022,4.5,72392.8,-23.35,-60.27,-60.61,0,*53
1483700916.93,6023,4.5,72370.3,-23.35,-59.95,-60.45,0,*57
1483700918.18,6024,4.5,72376.3,-23.35,-59.79,-60.27,0,*56
1483700919.42,6025,4.5,72382.0,-23.39,-59.87,-60.37,0,*5B
1483700920.66,6026,4.5,72372.5,-23.39,-59.79,-60.11,0,*5D
1483700921.9,6027,4.5,72382.8,-23.39,-59.63,-60.03,0,*54